Time,TemperatureF,DewpointF,PressureIn,WindDirection,WindDirectionDegrees,WindSpeedMPH,WindSpeedGustMPH,Humidity,HourlyPrecipIn,Conditions,Clouds,dailyrainin,SoftwareType,DateUTC
2013-03-02 00:00:00,31.0,-99.9,-100.00,NE,47,1.0,6.0,-999,-99.99,,,0.00,,2013-03-02 08:00:00,
2013-03-02 00:52:00,31.0,-99.9,-100.00,NE,47,1.0,6.0,-999,-99.99,,,0.00,,2013-03-02 08:52:00,
2013-03-02 01:00:00,31.0,-99.9,-100.00,NNE,30,1.0,6.0,-999,-99.99,,,0.00,,2013-03-02 09:00:00,
2013-03-02 01:52:00,31.0,-99.9,-100.00,NNE,30,1.0,6.0,-999,-99.99,,,0.00,,2013-03-02 09:52:00,
2013-03-02 02:00:00,30.0,-99.9,-100.00,NNE,14,1.0,5.0,-999,-99.99,,,0.00,,2013-03-02 10:00:00,
2013-03-02 02:52:00,30.0,-99.9,-100.00,NNE,14,1.0,5.0,-999,-99.99,,,0.00,,2013-03-02 10:52:00,
2013-03-02 03:00:00,33.0,-99.9,-100.00,SW,227,3.0,11.0,-999,-99.99,,,0.00,,2013-03-02 11:00:00,
2013-03-02 03:52:00,33.0,-99.9,-100.00,SW,227,3.0,11.0,-999,-99.99,,,0.00,,2013-03-02 11:52:00,
2013-03-02 04:00:00,31.0,-99.9,-100.00,East,86,1.0,7.0,-999,-99.99,,,0.00,,2013-03-02 12:00:00,
2013-03-02 04:53:00,31.0,-99.9,-100.00,East,86,1.0,7.0,-999,-99.99,,,0.00,,2013-03-02 12:53:00,
2013-03-02 05:00:00,33.0,-99.9,-100.00,North,-999,-999.0,-999.0,-999,-99.99,,,0.00,,2013-03-02 13:00:00,
2013-03-02 06:00:00,33.0,-99.9,-100.00,SW,224,4.0,11.0,-999,-99.99,,,0.00,,2013-03-02 14:00:00,
2013-03-02 06:52:00,33.0,-99.9,-100.00,SW,224,4.0,11.0,-999,-99.99,,,0.00,,2013-03-02 14:52:00,
2013-03-02 07:00:00,31.0,-99.9,-100.00,NW,307,2.0,8.0,-999,-99.99,,,0.00,,2013-03-02 15:00:00,
2013-03-02 07:52:00,31.0,-99.9,-100.00,NW,307,2.0,8.0,-999,-99.99,,,0.00,,2013-03-02 15:52:00,
2013-03-02 08:00:00,35.0,-99.9,-100.00,SW,219,4.0,10.0,-999,-99.99,,,0.00,,2013-03-02 16:00:00,
2013-03-02 08:52:00,35.0,-99.9,-100.00,SW,219,4.0,10.0,-999,-99.99,,,0.00,,2013-03-02 16:52:00,
2013-03-02 09:00:00,37.0,-99.9,-100.00,WSW,240,5.0,9.0,-999,-99.99,,,0.00,,2013-03-02 17:00:00,
2013-03-02 09:52:00,37.0,-99.9,-100.00,WSW,240,5.0,9.0,-999,-99.99,,,0.00,,2013-03-02 17:52:00,
2013-03-02 10:00:00,42.0,-99.9,-100.00,WSW,242,4.0,9.0,-999,-99.99,,,0.00,,2013-03-02 18:00:00,
2013-03-02 10:52:00,42.0,-99.9,-100.00,WSW,242,4.0,9.0,-999,-99.99,,,0.00,,2013-03-02 18:52:00,
2013-03-02 11:00:00,39.0,-99.9,-100.00,SSW,206,9.0,14.0,-999,-99.99,,,0.00,,2013-03-02 19:00:00,
2013-03-02 11:52:00,39.0,-99.9,-100.00,SSW,206,9.0,14.0,-999,-99.99,,,0.00,,2013-03-02 19:52:00,
2013-03-02 12:00:00,39.0,-99.9,-100.00,SSW,202,9.0,14.0,-999,-99.99,,,0.00,,2013-03-02 20:00:00,
2013-03-02 12:53:00,39.0,-99.9,-100.00,SSW,202,9.0,14.0,-999,-99.99,,,0.00,,2013-03-02 20:53:00,
2013-03-02 13:00:00,41.0,-99.9,-100.00,SSW,200,8.0,13.0,-999,-99.99,,,-99.99,,2013-03-02 21:00:00,
2013-03-02 13:53:00,41.0,-99.9,-100.00,SSW,200,8.0,13.0,-999,-99.99,,,-99.99,,2013-03-02 21:53:00,
2013-03-02 14:00:00,42.0,-99.9,-100.00,SSW,201,8.0,13.0,-999,-99.99,,,0.00,,2013-03-02 22:00:00,
2013-03-02 14:52:00,42.0,-99.9,-100.00,SSW,201,8.0,13.0,-999,-99.99,,,0.00,,2013-03-02 22:52:00,
2013-03-02 15:00:00,40.0,-99.9,-100.00,South,188,10.0,20.0,-999,-99.99,,,0.00,,2013-03-02 23:00:00,
2013-03-02 15:52:00,40.0,-99.9,-100.00,South,188,10.0,20.0,-999,-99.99,,,0.00,,2013-03-02 23:52:00,
2013-03-02 16:00:00,39.0,-99.9,-100.00,SSW,192,7.0,13.0,-999,-99.99,,,0.00,,2013-03-03 00:00:00,
2013-03-02 16:53:00,39.0,-99.9,-100.00,SSW,192,7.0,13.0,-999,-99.99,,,0.00,,2013-03-03 00:53:00,
2013-03-02 17:00:00,38.0,-99.9,-100.00,South,185,6.0,11.0,-999,-99.99,,,0.00,,2013-03-03 01:00:00,
2013-03-02 17:52:00,38.0,-99.9,-100.00,South,185,6.0,11.0,-999,-99.99,,,0.00,,2013-03-03 01:52:00,
2013-03-02 18:00:00,37.0,-99.9,-100.00,South,173,7.0,12.0,-999,-99.99,,,0.00,,2013-03-03 02:00:00,
2013-03-02 18:52:00,37.0,-99.9,-100.00,South,173,7.0,12.0,-999,-99.99,,,0.00,,2013-03-03 02:52:00,
2013-03-02 19:00:00,37.0,-99.9,-100.00,South,179,5.0,9.0,-999,-99.99,,,0.00,,2013-03-03 03:00:00,
2013-03-02 19:52:00,37.0,-99.9,-100.00,South,179,5.0,9.0,-999,-99.99,,,0.00,,2013-03-03 03:52:00,
2013-03-02 20:00:00,36.0,-99.9,-100.00,SSW,199,4.0,8.0,-999,-99.99,,,0.00,,2013-03-03 04:00:00,
2013-03-02 20:52:00,36.0,-99.9,-100.00,SSW,199,4.0,8.0,-999,-99.99,,,0.00,,2013-03-03 04:52:00,
2013-03-02 21:00:00,36.0,-99.9,-100.00,South,191,5.0,8.0,-999,-99.99,,,0.00,,2013-03-03 05:00:00,
2013-03-02 21:52:00,36.0,-99.9,-100.00,South,191,5.0,8.0,-999,-99.99,,,0.00,,2013-03-03 05:52:00,
2013-03-02 22:00:00,36.0,-99.9,-100.00,South,186,7.0,11.0,-999,-99.99,,,-99.99,,2013-03-03 06:00:00,
2013-03-02 22:52:00,36.0,-99.9,-100.00,South,186,7.0,11.0,-999,-99.99,,,-99.99,,2013-03-03 06:52:00,
2013-03-02 23:00:00,35.0,-99.9,-100.00,SSW,192,8.0,12.0,-999,-99.99,,,0.00,,2013-03-03 07:00:00,
2013-03-02 23:52:00,35.0,-99.9,-100.00,SSW,192,8.0,12.0,-999,-99.99,,,0.00,,2013-03-03 07:52:00,